GW3800 Weather Reports


time (UTC)temp
C
wind
direction
speed
KPH
gust
KPH
rain 1hr
cm
rain 24hr
cm
rain mn
cm
humidity
%
barometer
mb
20260504081615 4 253 0.0 1.6 0.00 0.00 0.00 84 1009.5
20260504081111 4 253 0.0 0.0 0.00 0.00 0.00 84 1009.4
20260504080608 4 253 0.0 0.0 0.00 0.00 0.00 84 1009.4
20260504080105 5 253 0.0 0.0 0.00 0.00 0.00 84 1009.5
20260504050421 7 253 0.0 0.0 0.00 0.00 0.00 73 1010.2
20260504045918 7 253 0.0 0.0 0.00 0.00 0.00 73 1010.2
20260504045414 7 253 1.6 1.6 0.00 0.00 0.00 73 1010.1
20260504044910 7 262 0.0 3.2 0.00 0.00 0.00 73 1010.3
20260504044408 7 293 0.0 0.0 0.00 0.00 0.00 73 1010.3
20260504043905 7 232 0.0 1.6 0.00 0.00 0.00 72 1010.3
20260504043401 7 278 0.0 1.6 0.00 0.00 0.00 72 1010.2
20260504042859 7 285 0.0 0.0 0.00 0.00 0.00 72 1010.1
20260504042355 7 285 0.0 1.6 0.00 0.00 0.00 71 1010.2
20260504041852 7 233 0.0 0.0 0.00 0.00 0.00 70 1010.2
20260504041348 7 233 0.0 1.6 0.00 0.00 0.00 70 1010.4
20260504040844 7 234 0.0 1.6 0.00 0.00 0.00 69 1010.4
20260504040342 7 250 0.0 3.2 0.00 0.00 0.00 70 1010.5
20260504035837 7 223 4.8 4.8 0.00 0.00 0.00 70 1010.7
20260504035336 7 217 1.6 4.8 0.00 0.00 0.00 70 1010.8
20260504034832 6 280 1.6 3.2 0.00 0.00 0.00 68 1010.6
20260504034330 6 250 3.2 14.5 0.00 0.00 0.00 68 1010.5
20260504033826 6 319 0.0 0.0 0.00 0.00 0.00 70 1010.6
20260504033325 5 319 0.0 0.0 0.00 0.00 0.00 70 1010.6
20260504032821 5 319 0.0 0.0 0.00 0.00 0.00 70 1010.7
20260504032318 5 319 0.0 0.0 0.00 0.00 0.00 70 1010.6
20260504031815 5 319 0.0 0.0 0.00 0.00 0.00 70 1010.6
20260504031312 5 319 0.0 0.0 0.00 0.00 0.00 69 1010.5
20260504030808 5 319 0.0 0.0 0.00 0.00 0.00 69 1010.3
20260504030306 5 319 0.0 0.0 0.00 0.00 0.00 69 1010.3
20260504025802 5 320 0.0 0.0 0.00 0.00 0.00 69 1010.0
20260504025259 5 320 0.0 0.0 0.00 0.00 0.00 68 1010.2
20260504024755 5 320 0.0 0.0 0.00 0.00 0.00 68 1010.2
20260504024252 5 320 0.0 0.0 0.00 0.00 0.00 67 1010.3
20260504023749 5 320 0.0 0.0 0.00 0.00 0.00 66 1010.1
20260504023245 5 319 0.0 0.0 0.00 0.00 0.00 67 1010.2
20260504022741 5 319 0.0 0.0 0.00 0.00 0.00 66 1010.2
20260504022238 5 319 0.0 0.0 0.00 0.00 0.00 64 1010.1
20260504021735 5 319 0.0 0.0 0.00 0.00 0.00 63 1010.1
20260504021232 6 319 0.0 0.0 0.00 0.00 0.00 62 1010.3
20260504020729 6 319 0.0 0.0 0.00 0.00 0.00 61 1010.2
20260504020225 6 320 0.0 0.0 0.00 0.00 0.00 59 1010.2
20260504015722 7 320 0.0 0.0 0.00 0.00 0.00 58 1010.1
20260504015218 7 320 0.0 0.0 0.00 0.00 0.00 56 1010.1
20260504014714 7 320 0.0 0.0 0.00 0.00 0.00 56 1010.2
20260504014211 7 320 0.0 1.6 0.00 0.00 0.00 55 1010.1
20260504013709 7 320 0.0 1.6 0.00 0.00 0.00 54 1010.2
20260504013206 7 320 1.6 1.6 0.00 0.00 0.00 53 1010.2
20260504012702 7 334 1.6 3.2 0.00 0.00 0.00 52 1010.1
20260504012200 8 333 1.6 1.6 0.00 0.00 0.00 51 1010.2
20260504011657 8 38 1.6 3.2 0.00 0.00 0.00 50 1010.0
20260504011153 8 304 1.6 1.6 0.00 0.00 0.00 50 1010.1
20260504010649 8 167 3.2 4.8 0.00 0.00 0.00 49 1010.1
20260504010145 8 215 3.2 4.8 0.00 0.00 0.00 49 1010.0
20260504005643 8 197 1.6 1.6 0.00 0.00 0.00 48 1010.0
20260504005139 8 250 0.0 1.6 0.00 0.00 0.00 48 1009.8
20260504004637 8 277 1.6 1.6 0.00 0.00 0.00 47 1009.9
20260504004134 8 259 1.6 3.2 0.00 0.00 0.00 47 1010.0
20260504003630 8 283 1.6 1.6 0.00 0.00 0.00 46 1009.9
20260504003127 8 229 1.6 1.6 0.00 0.00 0.00 46 1009.8
20260504002624 8 295 1.6 3.2 0.00 0.00 0.00 44 1009.7
20260504002121 8 4 1.6 3.2 0.00 0.00 0.00 43 1009.7
20260504001619 8 221 0.0 1.6 0.00 0.00 0.00 42 1009.7
20260504001114 9 253 0.0 6.4 0.00 0.00 0.00 42 1009.7
20260504000612 9 241 1.6 4.8 0.00 0.00 0.00 41 1009.5
20260504000110 9 185 4.8 4.8 0.00 0.00 0.00 41 1009.5
20260503235608 9 234 0.0 4.8 0.00 0.00 0.00 41 1009.3
20260503235104 9 250 1.6 4.8 0.00 0.00 0.00 40 1009.4
20260503234602 10 291 1.6 3.2 0.00 0.00 0.00 39 1009.3
20260503234100 10 253 1.6 4.8 0.00 0.00 0.00 40 1009.2
20260503233556 10 311 1.6 3.2 0.00 0.00 0.00 39 1009.2
20260503233052 10 43 1.6 1.6 0.00 0.00 0.00 38 1009.3
20260503232549 10 292 1.6 3.2 0.00 0.00 0.00 38 1009.2
20260503232047 10 243 1.6 4.8 0.00 0.00 0.00 36 1009.1
20260503231545 10 285 3.2 6.4 0.00 0.00 0.00 36 1009.2
20260503231041 10 124 4.8 9.7 0.00 0.00 0.00 35 1009.0
20260503230538 11 264 3.2 11.3 0.00 0.00 0.00 36 1009.0
20260503230035 11 264 3.2 9.7 0.00 0.00 0.00 33 1008.7
20260503225532 11 220 1.6 6.4 0.00 0.00 0.00 34 1008.7
20260503225032 11 266 6.4 9.7 0.00 0.00 0.00 33 1008.6
20260503224530 11 277 1.6 3.2 0.00 0.00 0.00 35 1008.6
20260503224028 11 273 1.6 4.8 0.00 0.00 0.00 32 1008.6
20260503223526 11 3 0.0 6.4 0.00 0.00 0.00 32 1008.6
20260503223021 11 259 1.6 3.2 0.00 0.00 0.00 33 1008.6
20260503222520 11 300 4.8 4.8 0.00 0.00 0.00 31 1008.6
20260503222017 11 258 1.6 4.8 0.00 0.00 0.00 32 1008.3
20260503221515 11 301 0.0 3.2 0.00 0.00 0.00 32 1008.6
20260503221012 11 190 4.8 4.8 0.00 0.00 0.00 30 1008.6
20260503220508 11 329 1.6 11.3 0.00 0.00 0.00 30 1008.7
20260503220005 12 280 0.0 3.2 0.00 0.00 0.00 33 1008.4
20260503215502 12 328 1.6 6.4 0.00 0.00 0.00 29 1008.7
20260503214959 12 280 4.8 12.9 0.00 0.00 0.00 27 1008.4
20260503214458 12 57 6.4 9.7 0.00 0.00 0.00 28 1008.2
20260503213955 12 246 0.0 3.2 0.00 0.00 0.00 31 1008.2
20260503213453 12 237 1.6 4.8 0.00 0.00 0.00 29 1008.4
20260503212948 12 287 3.2 4.8 0.00 0.00 0.00 29 1008.5
20260503212446 12 330 1.6 3.2 0.00 0.00 0.00 29 1008.5
20260503211943 12 294 4.8 12.9 0.00 0.00 0.00 29 1008.5
20260503211441 12 280 3.2 14.5 0.00 0.00 0.00 28 1008.5
20260503210936 12 252 6.4 9.7 0.00 0.00 0.00 28 1008.6
20260503210433 12 284 6.4 11.3 0.00 0.00 0.00 28 1008.4
20260503205928 12 207 4.8 17.7 0.00 0.00 0.00 29 1008.5
20260503205425 12 234 3.2 4.8 0.00 0.00 0.00 29 1008.3
20260503204921 13 315 8.0 9.7 0.00 0.00 0.00 27 1008.5
20260503204419 12 243 1.6 11.3 0.00 0.00 0.00 31 1008.6
20260503203916 13 280 3.2 6.4 0.00 0.00 0.00 29 1008.6
20260503203413 13 267 4.8 11.3 0.00 0.00 0.00 27 1008.5
20260503202910 13 258 3.2 6.4 0.00 0.00 0.00 26 1008.6
20260503202408 12 247 1.6 4.8 0.00 0.00 0.00 29 1008.7
20260503201906 12 253 1.6 12.9 0.00 0.00 0.00 28 1008.8
20260503201403 12 25 1.6 4.8 0.00 0.00 0.00 28 1008.6
20260503200900 12 187 4.8 11.3 0.00 0.00 0.00 29 1008.4
20260503200356 12 291 4.8 9.7 0.00 0.00 0.00 29 1008.6
20260503195853 13 308 6.4 9.7 0.00 0.00 0.00 29 1008.7
20260503195349 12 292 4.8 11.3 0.00 0.00 0.00 29 1008.7
20260503194847 13 255 3.2 6.4 0.00 0.00 0.00 32 1008.9
20260503194343 12 289 1.6 1.6 0.00 0.00 0.00 38 1008.9
20260503193839 12 293 1.6 6.4 0.00 0.00 0.00 31 1008.8
20260503193335 13 209 6.4 17.7 0.00 0.00 0.00 31 1008.8
20260503192831 12 252 1.6 4.8 0.00 0.00 0.00 32 1009.1
20260503192327 13 302 4.8 9.7 0.00 0.00 0.00 31 1009.3
20260503191823 12 352 3.2 11.3 0.00 0.00 0.00 32 1009.3
20260503191321 12 256 6.4 11.3 0.00 0.00 0.00 30 1009.3
20260503190817 13 272 1.6 4.8 0.00 0.00 0.00 31 1009.5
20260503190314 12 256 1.6 4.8 0.00 0.00 0.00 43 1009.4
20260503185811 12 51 6.4 9.7 0.00 0.00 0.00 32 1009.5
20260503185308 11 300 4.8 11.3 0.00 0.00 0.00 33 1009.6
20260503184807 11 165 8.0 11.3 0.00 0.00 0.00 33 1009.5
20260503184304 11 285 1.6 6.4 0.00 0.00 0.00 35 1009.8
20260503183759 11 272 1.6 4.8 0.00 0.00 0.00 35 1009.9
20260503183257 11 267 1.6 9.7 0.00 0.00 0.00 38 1010.1
20260503182754 11 9 6.4 9.7 0.00 0.00 0.00 34 1009.9
20260503182253 10 163 3.2 4.8 0.00 0.00 0.00 39 1009.8
20260503181750 11 288 0.0 1.6 0.00 0.00 0.00 37 1009.8
20260503181247 10 301 4.8 9.7 0.00 0.00 0.00 35 1010.0
20260503180743 10 351 3.2 9.7 0.00 0.00 0.00 38 1009.9
20260503180242 10 173 1.6 9.7 0.00 0.00 0.00 38 1009.8
20260503175738 9 332 1.6 4.8 0.00 0.00 0.00 43 1010.1
20260503175236 9 345 1.6 11.3 0.00 0.00 0.00 41 1010.1
20260503174732 10 284 8.0 12.9 0.00 0.00 0.00 36 1010.0
20260503174230 9 20 3.2 3.2 0.00 0.00 0.00 39 1010.1
20260503173730 8 264 3.2 4.8 0.00 0.00 0.00 38 1010.2
20260503173226 8 292 1.6 3.2 0.00 0.00 0.00 40 1010.3
20260503172723 8 253 0.0 11.3 0.00 0.00 0.00 41 1010.3
20260503172220 8 143 8.0 11.3 0.00 0.00 0.00 40 1010.3
20260503171717 8 266 1.6 6.4 0.00 0.00 0.00 42 1010.5
20260503171214 9 269 4.8 6.4 0.00 0.00 0.00 39 1010.4
20260503170711 8 230 1.6 4.8 0.00 0.00 0.00 43 1010.4
20260503170208 8 302 3.2 6.4 0.00 0.00 0.00 40 1010.5
20260503160130 8 270 1.6 6.4 0.00 0.00 0.00 40 1010.6
20260503150559 7 333 3.2 4.8 0.00 0.00 0.00 38 1010.8
20260503130949 7 225 3.2 6.4 0.00 0.00 0.00 52 1011.2
20260503130447 7 232 3.2 4.8 0.00 0.00 0.00 57 1011.4
20260503110343 2 226 0.0 0.0 0.00 0.00 0.00 84 1011.1